Regional Weather Roundup
Issued by NWS Tiyan, Guam

Current Version | Previous Version | Text Only | Print | Product List | Glossary On
Versions: 1 2 3 4 5 6 7 8 9 10 11 12 13 14 15 16 17 18 19 20 21 22 23 24 25 26 27
000
ASGM40 PGUM 272212
RWRGUM
WEATHER ROUNDUP FOR THE MARIANAS
NATIONAL WEATHER SERVICE TIYAN GU
800 AM CHST WED JUN 28 2017

GUZ001>004-272300-
MARIANA ISLANDS-

CITY           SKY/WX    TMP DP  RH WIND       PRES   REMARKS
GUAM AIRPORT   MOSUNNY   84  79  84 E10       29.93R HX  96
ANDERSEN AFB   LGT RAIN  82  75  78 E13       29.94R
ROTA AIRPORT   PTSUNNY   81  75  83 E13       29.93R
TINIAN AP      MOSUNNY   84  77  79 NE10      29.91R HX  94
SAIPAN AP      PTSUNNY   86  79  79 E13       29.92R HX  99

$$





USA.gov is the U.S. government's official web portal to all federal, state and local government web resources and services.